www.pogodaiklimat.ru

Погода и климат >> Архив погоды >> Россия >> Северная Осетия >> Моздок


ПОГОДА в Моздоке

  • Прогноз погоды в Моздоке
  • Монитор погоды в Моздоке

АРХИВ ПОГОДЫ в Моздоке

Время (UTC), дата Ветер
(напр.,м/с)
 
Видим.   Явления Облачность Т
(С)
Тd
(С)
f
(%)
Тe
(С)
Тes
(С)
Комфортность P
(гПа)
Po
(гПа)
Тmin
(С)
Tmax
(С)
R
(мм)
R24
(мм)
S
(см)
06 9.06 В 2 20 км ясно +26.7 +13.0 43 +28 +41 жарко 1018.7 1003.1
09 9.06 ЮВ 3 20 км 1/1 1000 м
[Cu hum]
+30.7 +9.2 26 +30 +45 жарко 1018.2 1002.8
12 9.06 В 3 20 км 3/1 1000 м
[Cu hum Ac trans]
+32.2 +6.9 21 +31 +39 жарко 1017.1 1001.8
15 9.06 В 3 20 км 8/0
[Ac trans Ci fib]
+30.5 +7.5 24 +29 +30 жарко 1016.8 1001.4 +32.7
18 9.06 В 3 20 км 4/0
[Ac trans]
+25.1 +5.5 28 +25 +25 комфорт 1018.3 1002.6
21 9.06 штиль 0 20 км ясно +20.5 +6.9 41 +21 +21 комфорт 1017.4 1001.5
00 10.06 штиль 0 20 км ясно +16.0 +9.0 63 +16 +16 1017.7 1001.6
03 10.06 В 1 20 км 3/0
[Ci fib]
+17.6 +11.9 69 +19 +20 1018.2 1002.2 +15.1
06 10.06 В 3 20 км 8/0
[Ac trans Ci fib]
+25.4 +11.2 41 +27 +34 жарко 1017.5 1001.9
09 10.06 В 3 20 км 8/0
[Ac trans Ci fib]
+30.7 +8.0 24 +30 +41 жарко 1015.9 1000.6
12 10.06 В 4 20 км 3/0
[Ac trans Ci fib]
+33.2 +9.8 24 +32 +40 жарко 1013.6 998.5
15 10.06 В 3 20 км 8/0
[Ac trans Ci fib]
+31.1 +8.2 24 +30 +31 жарко 1013.2 998.0 +33.3
18 10.06 В 2 20 км 8/4 600 м
[Sc Ac trans]
+25.5 +7.8 32 +26 +26 жарко 1014.5 998.9
21 10.06 В 2 20 км 3/0
[Ci fib]
+21.1 +11.7 55 +23 +23 комфорт 1013.5 997.7
00 11.06 СВ 1 20 км ясно +18.0 +14.5 80 +19 +19 1012.2 996.3
03 11.06 штиль 0 20 км 3/0
[Ci fib]
+18.4 +14.6 79 +19 +21 1013.0 997.1 +16.7
06 11.06 ЮВ 1 20 км 6/0
[Ci fib]
+24.8 +14.0 51 +27 +40 жарко 1012.2 996.7
09 11.06 ЮВ 1 20 км 8/0
[Ac trans Ci fib]
+30.3 +15.0 39 +32 +49 жарко 1010.3 995.1
12 11.06 Ю 1 20 км 8/0
[Ac trans Ci]
+32.5 +14.6 34 +34 +44 очень
жарко
1008.1 993.0
15 11.06 В 3 20 км 3/0
[Ci fib]
+32.4 +13.5 32 +34 +35 очень
жарко
1007.3 992.3 +33.4
18 11.06 В 2 20 км 3/0
[Ac trans Ci sp]
+25.9 +15.5 53 +29 +29 душно 1008.7 993.3
21 11.06 В 2 20 км 9/0
[As op]
+22.0 +14.2 61 +25 +25 комфорт 1008.3 992.7
00 12.06 В 1 20 км ясно +19.8 +14.0 69 +23 +23 комфорт 1008.8 993.0
03 12.06 В 1 20 км 4/0
[Ac trans Ci sp]
+20.6 +14.7 69 +24 +26 комфорт 1009.6 993.9 +18.9
06 12.06 В 1 20 км 8/1 1000 м
[Cu med, cong Ac trans Ci fib]
+24.9 +14.8 53 +28 +35 жарко 1009.5 994.0
09 12.06 ЮВ 2 20 км 8/0
[Ac trans Ci fib]
+31.1 +14.2 36 +33 +46 душно 1008.0 992.8
12 12.06 В 3 20 км 6/1 1000 м
[Cu med, cong Ac trans Ci fib]
+34.3 +6.5 18 +32 +39 жарко 1006.8 991.8
15 12.06 Ю 2 20 км 10/10 600 м
[Sc]
+28.4 +13.3 39 +30 +30 жарко 1007.8 992.6 +34.6
18 12.06 штиль 0 20 км 6/6 600 м
[Sc]
+25.0 +16.5 59 +28 +28 жарко 1008.5 993.0
21 12.06 З 1 20 км 8/0
[Cs]
+20.9 +15.8 73 +25 +25 комфорт 1008.3 992.7
00 13.06 штиль 0 20 км 4/0
[Ci sp]
+19.9 +14.3 70 +22 +22 комфорт 1007.8 992.1
03 13.06 штиль 0 20 км 8/0
[Ac trans Ci fib]
+19.8 +14.6 72 +22 +23 комфорт 1008.8 993.0 +18.5
06 13.06 ЮЗ 2 20 км 9/0
[Ac cast]
+24.5 +15.5 57 +27 +32 жарко 1009.6 994.1
09 13.06 В 2 20 км 6/3 1000 м
[Cu med, cong Ac cast]
+31.4 +13.8 34 +33 +42 жарко 1009.0 993.8
12 13.06 В 2 20 км 4/3 1000 м
[Cu med, cong Ac cuf]
+33.9 +9.5 22 +33 +41 жарко 1007.7 992.7
15 13.06 В 2 20 км 8/3 1000 м
[Cu med, cong Ac cast Ci sp]
+33.2 +7.4 20 +31 +32 жарко 1007.9 992.8 +34.5
18 13.06 З 4
{10}
20 км 8/8 600 м
[Sc]
+24.3 +14.6 55 +27 +27 жарко 1011.5 995.9
21 13.06 З 1 20 км в посл. час ливневой дождь 8/6 600 м
[Cb cap Ac trans]
+22.0 +15.5 67 +26 +26 душно 1012.1 996.4
00 14.06 СЗ 1 20 км {ливн. осадки} 9/9 600 м
[Sc]
+21.0 +15.0 69 +25 +25 комфорт 1012.0 996.2
03 14.06 З 1 20 км 6/0
[Ac trans Ci fib]
+22.1 +15.7 67 +26 +27 душно 1012.8 997.1 +19.9
06 14.06 С 1 20 км 4/0
[Ac trans Ci sp]
+29.4 +11.9 34 +30 +43 жарко 1013.2 997.9
09 14.06 В 2 20 км 3/0
[Ci sp]
+32.9 +8.7 22 +32 +50 жарко 1012.9 997.7
12 14.06 В 3 20 км 6/4 1000 м
[Cu med, cong Ac trans Ci fib]
+34.5 +9.2 21 +33 +38 жарко 1011.8 996.7
15 14.06 Ю 2
{12}
20 км в посл. час гроза 9/6 600 м
[Cb cap Ac trans]
+23.9 +14.5 56 +27 +27 жарко 1014.6 999.0 +35.1
18 14.06 штиль 0 20 км {гроза} 9/0
[Ac As]
+22.2 +16.2 69 +26 +26 душно 1014.8 999.1
21 14.06 В 2 20 км 3/0
[Ci sp]
+21.3 +15.2 68 +24 +24 комфорт 1015.0 999.2
00 15.06 В 2 20 км 1/0
[Ci sp]
+17.9 +14.8 82 +18 +18 1014.4 998.4
03 15.06 В 2 20 км 8/0
[Ac trans Ci fib]
+18.0 +14.8 82 +19 +20 1014.6 998.7 +16.7
06 15.06 В 3 20 км 3/3 1000 м
[Cu med, cong]
+24.5 +15.2 56 +27 +34 жарко 1014.7 999.1
09 15.06 В 3 20 км 3/1 1000 м
[Cu med, cong Ci sp]
+29.2 +13.1 37 +31 +45 жарко 1012.6 997.2
12 15.06 ЮВ 3 20 км 3/1 1000 м
[Cu med, cong Ci fib]
+31.9 +12.4 30 +32 +41 жарко 1010.3 995.1
15 15.06 В 3 20 км 3/1 1000 м
[Cu med, cong Ci sp]
+30.7 +10.4 29 +31 +32 жарко 1009.9 994.7 +32.1
18 15.06 В 3 20 км 3/0
[Ci fib]
+25.2 +9.6 37 +26 +26 жарко 1011.3 995.7
21 15.06 ЮВ 2 20 км 6/0
[Ac trans Ci fib]
+21.0 +9.5 48 +23 +23 комфорт 1011.5 995.7
00 16.06 В 1 20 км 3/0
[Ci fib]
+17.8 +11.2 65 +19 +19 1010.4 994.5

 

Местоположение метеостанции Моздок (Северная Осетия, Россия): широта 43.73 долгота 44.67 высота над уровнем моря 136 м.

В архиве по умолчанию представлена погода в Моздоке за последнюю неделю. Архивные данные за месяц целиком и за предыдущие месяцы, начиная с января 2011 года, Вы можете получить, выбрав интересующий диапазон дат из раскрывающегося списка и нажав кнопку "Ввод!".


*Определитесь, кто Вы:
робот инопланетянин человек

Внимание! Время в таблицах - всемирное. Для получения местного времени необходимо прибавить поправку, которая равна 3 ч.

Смотрите также архив погоды в соседних городах и на ближайших метеорологических станциях:

Погода в Прохладный (Кабардино-Балкария, Россия) (50 км)
Погода в Наурской (Чечня, Россия) (53 км)
Погода в Рощино (Ставропольский край, Россия) (63 км)
Погода в Назрани (Ингушетия, Россия) (66 км)
Погода в Владикавказе (Северная Осетия, Россия) (78 км)
Погода в Алагире (Северная Осетия, Россия) (81 км)
Погода в Нальчике (Кабардино-Балкария, Россия) (87 км)
Погода в Грозном (Чечня, Россия) (100 км)
Погода в Зеленокумске (Ставропольский край, Россия) (100 км)
Погода в Терекли-Мектебе (Дагестан, Россия) (107 км)

Пояснения к столбцам:

Ветер - указаны скорость ветра в м/с - средняя за 10 мин, порывы в срок и между сроками (в фигурных скобках) и направление, откуда дует ветер: С - северный, СВ - северо-восточный, В - восточный, ЮВ - юго-восточный, Ю - южный, ЮЗ - юго-западный, З - западный, СЗ - северо-западный.
Видимость - горизонтальная дальность видимости в метрах или километрах. При видимости от 1 до 10 км при отсутствии осадков обычно наблюдается дымка, при ухудшении видимости до 1 км и менее - туман. В сухую погоду видимость может ухудшаться дымом, пылью или мглою.
Явления - указаны атмосферные явления, наблюдавшиеся в срок или в последний час перед сроком; фигурными скобками обозначены явления, наблюдавшиеся между сроками (за 1-3 часа до срока); квадратными скобками обозначены град или гололедные отложения с указанием их диаметра в мм.
Облачность - указаны через наклонную черту общая и нижняя облачность в баллах и высота нижней границы облаков в метрах; квадратными скобками обозначены формы облаков: Ci - перистые, Cs - перисто-слоистые, Cc - перисто-кучевые, Ac - высококучевые, As - высокослоистые, Sc - слоисто-кучевые, Ns - слоисто-дождевые, Cu - кучевые, Cb - кучево-дождевые. Подробнее классификацию облаков см. в Атласе облаков (PDF).
T - Температура воздуха - температура, измеренная на высоте 2 м над землей.
Td - Температура точки росы - температура, при понижении до которой содержащийся в воздухе водяной пар достигнет насыщения.
f - Относительная влажность воздуха - влажноcть воздуха, измеренная на высоте 2 м над землей.
Te - Эффективная температура - температура, которую ощущает одетый по сезону человек в тени. Характеристика душности погоды. При расчете учитывается влияние влажности воздуха и скорости ветра на теплоощущения человека.
Tes - Эффективная температура на солнце - температура, которую ощущает человек, с поправкой на солнечный нагрев. Характеристика знойности погоды. Зависит от высоты солнца над горизонтом, облачности и скорости ветра. Ночью, в пасмурную погоду, а также при ветре 12 м/с и более поправка равна нулю.
P - Атмосферное давление - приведенное к уровню моря атмосферное давление.
Po - Атмосферное давление - измеренное на уровне метеостанции атмосферное давление.
Tmin - Минимальная температура - минимум температуры воздуха на высоте 2 м над землей.
Tmax - Максимальная температура - максимум температуры воздуха на высоте 2 м над землей.
R - Количество осадков - Количество выпавших осадков за период времени, мм. При наведении курсора мыши на число - период времени, за который выпало указанное количество осадков.
R24 - Количество осадков - Количество выпавших осадков за 24 часа, мм.
S - Снежный покров - Высота снежного покрова, см. При наведении курсора мыши на число - состояние снежного покрова и степень покрытия местности в баллах.